Location: Arroyo de Valdeoliva
(40.1604°N, 4.9878°W)
Time: 12:30:21
(UTC+00:00)

Tiangong - Pass Details

Date: 20 February 2026
Orbit: 381 x 391 km, 41.5° (Epoch: 8 March)

Event Time Altitude Azimuth Distance (km) Brightness Sun altitude
Rises 20:02:33 0° 277° (W) 2,253 3.2 -23.8°
Reaches altitude 10° 20:04:59 10° 259° (W) 1,395 1.7 -24.3°
Enters shadow 20:06:43 18° 227° (SW) 1,005 0.4 -24.6°
